contact:dominique.lefevre@mio.osupytheas.fr, maurice.libes@osupytheas.fr, didier.mallarino@osupytheas.fr
Project:EMSO http://www.emso-fr.org/EMSO-France
Depth: 2436.0 m
Title:EMSO Ligure Ouest : Data MII capteur AQUADOPP
Date,Latitude,Longitude,X_East,Y_North,Z_Up,Amplitude_X,Amplitude_Y,Amplitude_Z,Batterie,SoundSpeed,Heading,Pitch,Roll,Pressure,TIS,Speed,Direction
, degrees North, degrees East, m.s-1, m.s-1,m.s-1, 1, 1, 1, Volt, m.s-1, degree, degree, degree, dbar, degree_C, m.s-1, degree
2023-05-21T00:04:03,42.805,6.029,0.055,-0.04,-0.026,103.0,102.0,101.0,13.4,1505.2,347.0,-0.8,1.8,2471.367,13.28,0.068,126.0
2023-05-21T00:07:03,42.805,6.029,0.048,-0.01,-0.067,102.0,102.0,101.0,13.4,1505.2,325.3,-0.8,1.8,2471.391,13.28,0.049,101.8
2023-05-21T00:10:03,42.805,6.029,0.012,0.0,-0.028,103.0,102.0,101.0,13.4,1505.2,325.0,-0.7,1.8,2471.363,13.28,0.012,90.0
2023-05-21T00:13:03,42.805,6.029,0.031,-0.025,-0.037,102.0,101.0,101.0,13.4,1505.2,332.4,-0.8,1.8,2471.322,13.29,0.039,128.9
2023-05-21T00:16:03,42.805,6.029,0.03,-0.017,0.0,101.0,102.0,101.0,13.4,1505.2,343.3,-0.8,1.8,2471.357,13.29,0.034,119.5
2023-05-21T00:19:03,42.805,6.029,0.026,0.005,-0.011,103.0,102.0,100.0,13.4,1505.2,330.9,-0.8,1.8,2471.347,13.29,0.026,79.1
2023-05-21T00:22:03,42.805,6.029,0.018,-0.001,-0.024,103.0,104.0,101.0,13.3,1505.2,325.7,-0.8,1.8,2471.376,13.29,0.018,93.2
2023-05-21T00:25:03,42.805,6.029,0.016,-0.009,-0.033,102.0,101.0,101.0,13.4,1505.2,334.2,-0.8,1.8,2471.317,13.29,0.018,119.4
2023-05-21T00:28:03,42.805,6.029,0.034,-0.032,-0.023,102.0,101.0,102.0,13.4,1505.2,327.5,-0.7,1.8,2471.335,13.29,0.046,133.3
2023-05-21T00:31:03,42.805,6.029,0.035,0.004,-0.022,103.0,101.0,100.0,13.4,1505.2,324.6,-0.7,1.8,2471.323,13.29,0.035,83.5
2023-05-21T00:34:03,42.805,6.029,0.023,-0.006,-0.023,103.0,102.0,100.0,13.4,1505.2,345.1,-0.8,1.8,2471.336,13.29,0.023,104.6
2023-05-21T00:37:03,42.805,6.029,0.032,-0.012,-0.032,102.0,101.0,102.0,13.4,1505.2,329.4,-0.8,1.8,2471.282,13.29,0.034,110.6
2023-05-21T00:40:03,42.805,6.029,0.063,-0.006,-0.021,103.0,103.0,101.0,13.4,1505.2,325.7,-0.8,1.8,2471.332,13.29,0.063,95.4
2023-05-21T00:43:03,42.805,6.029,0.038,-0.018,-0.035,103.0,102.0,101.0,13.4,1505.2,347.0,-0.8,1.8,2471.317,13.29,0.042,115.3
2023-05-21T00:46:03,42.805,6.029,0.038,0.017,0.002,102.0,103.0,101.0,13.4,1505.2,322.1,-0.8,1.8,2471.333,13.29,0.041,65.9
2023-05-21T00:49:03,42.805,6.029,0.031,0.005,-0.027,102.0,101.0,101.0,13.4,1505.2,332.9,-0.7,1.8,2471.282,13.29,0.031,80.8
2023-05-21T00:52:03,42.805,6.029,0.037,-0.022,-0.026,102.0,103.0,102.0,13.4,1505.2,345.1,-0.8,1.8,2471.306,13.29,0.043,120.7
2023-05-21T00:55:03,42.805,6.029,0.042,-0.018,-0.044,103.0,101.0,102.0,13.3,1505.2,336.6,-0.8,1.8,2471.31,13.29,0.045,113.2
2023-05-21T00:58:03,42.805,6.029,0.039,0.002,-0.006,103.0,104.0,101.0,13.4,1505.2,338.2,-0.8,1.8,2471.319,13.29,0.039,87.1
2023-05-21T01:04:03,42.805,6.029,0.023,0.004,-0.05,103.0,103.0,103.0,13.4,1505.2,338.0,-0.8,1.8,2471.378,13.28,0.023,80.1
2023-05-21T01:07:03,42.805,6.029,0.029,0.005,-0.021,103.0,103.0,101.0,13.3,1505.2,329.5,-0.8,1.8,2471.33,13.28,0.029,80.2
2023-05-21T01:10:03,42.805,6.029,0.053,-0.018,-0.016,103.0,101.0,101.0,13.4,1505.2,345.9,-0.8,1.8,2471.361,13.28,0.055,108.8
2023-05-21T01:13:03,42.805,6.029,0.043,-0.001,-0.024,102.0,103.0,101.0,13.4,1505.2,323.6,-0.8,1.8,2471.309,13.29,0.043,91.3
2023-05-21T01:16:03,42.805,6.029,0.039,-0.012,-0.013,101.0,103.0,101.0,13.3,1505.2,336.5,-0.8,1.8,2471.345,13.28,0.04,107.1
2023-05-21T01:19:03,42.805,6.029,0.041,-0.021,-0.01,104.0,100.0,101.0,13.3,1505.2,345.6,-0.8,1.8,2471.286,13.29,0.046,117.1
2023-05-21T01:22:03,42.805,6.029,0.041,-0.01,-0.045,102.0,103.0,101.0,13.4,1505.2,323.6,-0.8,1.8,2471.297,13.29,0.042,103.7
2023-05-21T01:25:03,42.805,6.029,0.04,-0.02,-0.025,101.0,103.0,101.0,13.4,1505.2,333.4,-0.8,1.8,2471.297,13.29,0.044,116.6
2023-05-21T01:28:03,42.805,6.029,0.029,-0.005,-0.032,103.0,101.0,102.0,13.4,1505.2,340.8,-0.8,1.8,2471.251,13.29,0.029,99.8
2023-05-21T01:31:03,42.805,6.029,0.037,-0.007,-0.034,103.0,101.0,101.0,13.4,1505.2,322.4,-0.8,1.8,2471.295,13.29,0.037,100.7
2023-05-21T01:34:03,42.805,6.029,0.031,-0.02,-0.03,102.0,103.0,101.0,13.4,1505.2,331.6,-0.8,1.8,2471.317,13.29,0.036,122.8
2023-05-21T01:37:03,42.805,6.029,0.043,0.0,0.005,103.0,102.0,102.0,13.4,1505.2,341.2,-0.8,1.8,2471.28,13.29,0.043,90.0
2023-05-21T01:40:03,42.805,6.029,0.026,0.0,-0.02,102.0,104.0,102.0,13.4,1505.2,326.5,-0.8,1.8,2471.293,13.29,0.026,90.0
2023-05-21T01:43:03,42.805,6.029,0.046,-0.007,-0.014,102.0,102.0,102.0,13.3,1505.2,334.2,-0.8,1.8,2471.279,13.29,0.046,98.7
2023-05-21T01:46:03,42.805,6.029,0.035,0.003,-0.007,102.0,103.0,101.0,13.4,1505.2,325.7,-0.7,1.8,2471.27,13.29,0.035,85.1
2023-05-21T01:49:03,42.805,6.029,0.036,-0.025,-0.007,103.0,103.0,100.0,13.4,1505.2,347.0,-0.8,1.8,2471.257,13.29,0.043,124.8
2023-05-21T01:52:03,42.805,6.029,0.025,-0.007,-0.059,103.0,102.0,101.0,13.3,1505.2,316.9,-0.8,1.8,2471.264,13.29,0.025,105.6
2023-05-21T01:55:03,42.805,6.029,0.027,0.02,-0.017,102.0,103.0,101.0,13.4,1505.2,326.0,-0.8,1.8,2471.275,13.29,0.033,53.5
2023-05-21T01:58:03,42.805,6.029,0.042,-0.015,-0.057,103.0,103.0,101.0,13.3,1505.2,344.4,-0.8,1.8,2471.249,13.29,0.044,109.6
2023-05-21T02:04:03,42.805,6.029,0.029,0.0,0.004,102.0,102.0,102.0,13.4,1505.2,328.3,-0.8,1.8,2471.273,13.28,0.028,90.0
2023-05-21T02:07:03,42.805,6.029,0.033,-0.024,-0.013,103.0,102.0,101.0,13.4,1505.2,348.4,-0.8,1.8,2471.291,13.28,0.04,126.0
2023-05-21T02:10:03,42.805,6.029,0.029,-0.023,-0.052,102.0,103.0,102.0,13.4,1505.2,321.7,-0.8,1.8,2471.293,13.28,0.037,128.4
2023-05-21T02:13:03,42.805,6.029,0.056,-0.009,-0.004,102.0,103.0,100.0,13.3,1505.2,336.9,-0.8,1.8,2471.262,13.28,0.056,99.1
2023-05-21T02:16:03,42.805,6.029,0.017,-0.013,-0.046,103.0,102.0,102.0,13.3,1505.2,335.4,-0.8,1.8,2471.29,13.29,0.021,127.4
2023-05-21T02:19:03,42.805,6.029,0.033,-0.024,-0.028,103.0,103.0,101.0,13.4,1505.2,343.4,-0.8,1.8,2471.285,13.29,0.04,126.0
2023-05-21T02:22:03,42.805,6.029,0.045,-0.024,-0.037,103.0,102.0,100.0,13.4,1505.2,339.4,-0.8,1.8,2471.28,13.29,0.051,118.1
2023-05-21T02:25:03,42.805,6.029,0.059,-0.021,-0.018,103.0,102.0,102.0,13.4,1505.2,335.6,-0.8,1.8,2471.263,13.29,0.062,109.6
2023-05-21T02:28:03,42.805,6.029,0.033,-0.007,-0.021,102.0,102.0,100.0,13.4,1505.2,317.5,-0.8,1.8,2471.229,13.29,0.033,102.0
2023-05-21T02:31:03,42.805,6.029,0.008,-0.002,-0.009,102.0,104.0,101.0,13.4,1505.2,332.5,-0.8,1.8,2471.236,13.29,0.008,104.0
2023-05-21T02:34:03,42.805,6.029,0.043,-0.018,-0.019,103.0,102.0,101.0,13.4,1505.2,323.7,-0.8,1.8,2471.249,13.29,0.046,112.7
2023-05-21T02:37:03,42.805,6.029,0.016,-0.035,-0.042,103.0,102.0,102.0,13.4,1505.2,345.1,-0.7,1.8,2471.226,13.29,0.038,155.4
2023-05-21T02:40:03,42.805,6.029,0.009,-0.011,-0.013,104.0,101.0,101.0,13.3,1505.2,325.4,-0.8,1.8,2471.232,13.29,0.014,140.7
2023-05-21T02:43:03,42.805,6.029,0.035,0.003,-0.012,102.0,104.0,101.0,13.4,1505.2,333.0,-0.8,1.8,2471.263,13.29,0.035,85.1
2023-05-21T02:46:03,42.805,6.029,0.025,-0.019,-0.024,102.0,102.0,101.0,13.3,1505.2,326.8,-0.8,1.8,2471.23,13.29,0.031,127.2
2023-05-21T02:49:03,42.805,6.029,0.023,-0.032,-0.035,102.0,101.0,101.0,13.4,1505.2,344.0,-0.8,1.8,2471.232,13.29,0.039,144.3
2023-05-21T02:52:03,42.805,6.029,0.019,0.009,-0.013,102.0,103.0,101.0,13.3,1505.2,327.1,-0.8,1.8,2471.238,13.29,0.021,64.7
2023-05-21T02:55:03,42.805,6.029,0.019,0.002,-0.014,102.0,102.0,101.0,13.4,1505.2,327.8,-0.8,1.8,2471.237,13.29,0.019,84.0
2023-05-21T02:58:03,42.805,6.029,0.024,-0.004,-0.022,101.0,102.0,102.0,13.4,1505.2,345.9,-0.7,1.8,2471.216,13.29,0.024,99.5
2023-05-21T03:04:03,42.805,6.029,0.047,-0.006,-0.002,103.0,102.0,101.0,13.4,1505.2,322.5,-0.8,1.8,2471.256,13.28,0.047,97.3
2023-05-21T03:07:03,42.805,6.029,0.034,0.0,-0.023,103.0,102.0,101.0,13.4,1505.2,330.5,-0.8,1.8,2471.261,13.28,0.034,90.0
2023-05-21T03:10:03,42.805,6.029,0.031,0.003,-0.023,102.0,103.0,101.0,13.3,1505.2,320.7,-0.8,1.8,2471.26,13.28,0.031,84.5
2023-05-21T03:13:03,42.805,6.029,0.04,-0.022,-0.031,102.0,102.0,101.0,13.3,1505.2,334.2,-0.8,1.8,2471.239,13.28,0.045,118.8
2023-05-21T03:16:03,42.805,6.029,0.04,-0.014,-0.032,103.0,102.0,101.0,13.4,1505.2,326.3,-0.8,1.8,2471.266,13.29,0.042,109.3
2023-05-21T03:19:03,42.805,6.029,0.034,0.002,-0.021,102.0,102.0,101.0,13.4,1505.2,340.0,-0.7,1.8,2471.246,13.29,0.034,86.6
2023-05-21T03:22:03,42.805,6.029,0.045,-0.001,-0.01,103.0,103.0,101.0,13.4,1505.2,334.8,-0.8,1.8,2471.224,13.29,0.045,91.3
2023-05-21T03:25:03,42.805,6.029,0.02,-0.007,-0.017,102.0,101.0,103.0,13.4,1505.2,324.3,-0.8,1.8,2471.261,13.29,0.021,109.3
2023-05-21T03:28:03,42.805,6.029,0.061,-0.012,0.003,102.0,101.0,102.0,13.4,1505.2,328.0,-0.8,1.8,2471.241,13.29,0.062,101.1
2023-05-21T03:31:03,42.805,6.029,0.047,-0.031,-0.043,101.0,103.0,101.0,13.4,1505.2,339.8,-0.8,1.8,2471.271,13.29,0.056,123.4
2023-05-21T03:34:03,42.805,6.029,0.028,0.007,-0.006,103.0,101.0,102.0,13.3,1505.2,325.2,-0.8,1.8,2471.22,13.29,0.028,76.0
2023-05-21T03:37:03,42.805,6.029,0.023,0.0,-0.013,102.0,101.0,101.0,13.4,1505.2,335.0,-0.8,1.8,2471.256,13.29,0.023,90.0
2023-05-21T03:40:03,42.805,6.029,0.037,-0.006,-0.007,102.0,102.0,101.0,13.4,1505.2,341.5,-0.7,1.8,2471.227,13.29,0.037,99.2
2023-05-21T03:43:03,42.805,6.029,0.026,0.0,0.001,102.0,102.0,100.0,13.3,1505.2,321.1,-0.7,1.8,2471.259,13.29,0.026,90.0
2023-05-21T03:46:03,42.805,6.029,0.018,0.001,-0.001,102.0,103.0,100.0,13.3,1505.2,340.4,-0.7,1.8,2471.292,13.29,0.018,86.8
2023-05-21T03:49:03,42.805,6.029,0.016,0.0,0.006,103.0,102.0,100.0,13.4,1505.2,328.6,-0.7,1.8,2471.257,13.29,0.016,90.0
2023-05-21T03:52:03,42.805,6.029,0.036,-0.011,-0.033,102.0,102.0,101.0,13.3,1505.2,337.2,-0.8,1.8,2471.236,13.29,0.037,107.0
2023-05-21T03:55:03,42.805,6.029,0.034,-0.007,-0.008,102.0,102.0,101.0,13.4,1505.2,318.1,-0.8,1.8,2471.231,13.29,0.034,101.6
2023-05-21T03:58:03,42.805,6.029,0.05,-0.018,-0.023,102.0,102.0,101.0,13.3,1505.2,329.2,-0.7,1.8,2471.282,13.29,0.053,109.8
2023-05-21T04:04:03,42.805,6.029,0.052,-0.025,-0.027,102.0,100.0,100.0,13.4,1505.2,337.1,-0.8,1.8,2471.299,13.28,0.057,115.7
2023-05-21T04:07:03,42.805,6.029,0.03,0.002,0.004,99.0,102.0,101.0,13.3,1505.2,329.8,-0.8,1.8,2471.326,13.28,0.03,86.2
2023-05-21T04:10:03,42.805,6.029,0.039,-0.012,-0.037,101.0,104.0,100.0,13.4,1505.2,331.4,-0.8,1.8,2471.317,13.28,0.04,107.1
2023-05-21T04:13:03,42.805,6.029,0.047,-0.028,-0.005,102.0,102.0,101.0,13.3,1505.2,344.5,-0.7,1.8,2471.257,13.28,0.054,120.8
2023-05-21T04:16:03,42.805,6.029,0.018,-0.004,-0.072,102.0,103.0,100.0,13.4,1505.2,323.8,-0.8,1.8,2471.288,13.29,0.018,102.5
2023-05-21T04:19:03,42.805,6.029,0.012,0.002,-0.007,103.0,101.0,101.0,13.3,1505.2,327.4,-0.8,1.8,2471.262,13.29,0.012,80.5
2023-05-21T04:22:03,42.805,6.029,0.039,-0.013,-0.026,101.0,102.0,102.0,13.3,1505.2,339.3,-0.8,1.8,2471.258,13.29,0.041,108.4
2023-05-21T04:25:03,42.805,6.029,0.039,0.007,-0.022,103.0,102.0,100.0,13.4,1505.2,322.4,-0.7,1.8,2471.291,13.29,0.039,79.8
2023-05-21T04:28:03,42.805,6.029,0.029,-0.018,-0.04,101.0,102.0,102.0,13.4,1505.2,334.4,-0.8,1.8,2471.259,13.29,0.034,121.8
2023-05-21T04:31:03,42.805,6.029,0.039,0.017,-0.01,102.0,104.0,100.0,13.4,1505.2,328.5,-0.8,1.8,2471.297,13.29,0.042,66.5
2023-05-21T04:34:03,42.805,6.029,0.038,-0.006,-0.016,102.0,102.0,101.0,13.4,1505.2,330.4,-0.8,1.8,2471.3,13.29,0.038,99.0
2023-05-21T04:37:03,42.805,6.029,0.029,0.003,-0.027,103.0,103.0,102.0,13.4,1505.2,329.4,-0.7,1.8,2471.26,13.29,0.029,84.1
2023-05-21T04:40:03,42.805,6.029,0.034,-0.018,-0.019,102.0,102.0,101.0,13.4,1505.2,342.5,-0.8,1.8,2471.224,13.29,0.038,117.9
2023-05-21T04:43:03,42.805,6.029,0.052,-0.02,-0.038,103.0,101.0,102.0,13.4,1505.2,322.4,-0.8,1.8,2471.263,13.29,0.055,111.0
2023-05-21T04:46:03,42.805,6.029,0.034,-0.006,0.006,102.0,102.0,101.0,13.4,1505.2,336.0,-0.8,1.8,2471.305,13.29,0.034,100.0
2023-05-21T04:49:03,42.805,6.029,0.033,-0.02,0.006,103.0,101.0,101.0,13.4,1505.2,339.4,-0.8,1.8,2471.281,13.29,0.038,121.2
2023-05-21T04:52:03,42.805,6.029,0.036,0.001,-0.013,102.0,101.0,101.0,13.4,1505.2,323.9,-0.8,1.8,2471.292,13.29,0.036,88.4
2023-05-21T04:55:03,42.805,6.029,0.04,-0.025,-0.024,101.0,102.0,102.0,13.4,1505.2,327.1,-0.8,1.8,2471.254,13.29,0.047,122.0
2023-05-21T04:58:03,42.805,6.029,0.015,0.006,-0.015,102.0,102.0,101.0,13.4,1505.2,336.1,-0.8,1.8,2471.293,13.29,0.016,68.2
2023-05-21T05:04:03,42.805,6.029,0.043,-0.02,-0.012,101.0,102.0,101.0,13.3,1505.2,349.1,-0.8,1.8,2471.346,13.28,0.047,114.9
2023-05-21T05:07:03,42.805,6.029,0.021,0.006,-0.035,103.0,101.0,101.0,13.4,1505.2,317.6,-0.8,1.8,2471.32,13.28,0.021,74.1
2023-05-21T05:10:03,42.805,6.029,0.047,0.001,-0.007,103.0,103.0,101.0,13.4,1505.2,336.0,-0.8,1.8,2471.305,13.28,0.047,88.8
2023-05-21T05:13:03,42.805,6.029,0.057,-0.014,-0.001,102.0,102.0,101.0,13.4,1505.2,326.0,-0.7,1.8,2471.308,13.28,0.058,103.8
2023-05-21T05:16:03,42.805,6.029,0.052,-0.027,-0.024,102.0,104.0,101.0,13.4,1505.2,337.6,-0.8,1.8,2471.319,13.28,0.058,117.4
2023-05-21T05:19:03,42.805,6.029,0.051,-0.03,-0.002,101.0,102.0,101.0,13.3,1505.2,342.5,-0.8,1.8,2471.289,13.29,0.059,120.5
2023-05-21T05:22:03,42.805,6.029,0.061,-0.012,-0.028,102.0,102.0,101.0,13.3,1505.2,319.4,-0.7,1.8,2471.27,13.29,0.062,101.1
2023-05-21T05:25:03,42.805,6.029,0.044,0.009,-0.031,102.0,101.0,101.0,13.4,1505.2,323.3,-0.8,1.8,2471.323,13.29,0.044,78.4
2023-05-21T05:28:03,42.805,6.029,0.048,-0.028,-0.036,102.0,103.0,101.0,13.3,1505.2,330.3,-0.7,1.8,2471.296,13.29,0.055,120.3
2023-05-21T05:31:03,42.805,6.029,0.039,-0.012,-0.018,102.0,101.0,102.0,13.4,1505.2,335.5,-0.7,1.8,2471.333,13.29,0.04,107.1
2023-05-21T05:34:03,42.805,6.029,0.02,0.012,-0.009,103.0,103.0,100.0,13.4,1505.2,342.7,-0.8,1.8,2471.313,13.29,0.023,59.0
2023-05-21T05:37:03,42.805,6.029,0.034,-0.018,-0.008,102.0,101.0,101.0,13.4,1505.2,320.6,-0.8,1.8,2471.263,13.29,0.038,117.9
2023-05-21T05:40:03,42.805,6.029,0.048,-0.009,-0.003,102.0,102.0,100.0,13.4,1505.2,316.3,-0.8,1.8,2471.327,13.29,0.048,100.6
2023-05-21T05:43:03,42.805,6.029,0.028,-0.022,-0.033,103.0,100.0,102.0,13.4,1505.2,331.2,-0.8,1.8,2471.336,13.29,0.035,128.2
2023-05-21T05:46:03,42.805,6.029,0.021,-0.013,-0.008,102.0,102.0,101.0,13.3,1505.2,334.4,-0.7,1.8,2471.312,13.29,0.024,121.8
2023-05-21T05:49:03,42.805,6.029,0.03,-0.004,-0.011,103.0,101.0,101.0,13.4,1505.2,332.6,-0.7,1.8,2471.271,13.29,0.03,97.6
2023-05-21T05:52:03,42.805,6.029,0.021,-0.017,-0.016,102.0,101.0,101.0,13.3,1505.2,339.0,-0.7,1.8,2471.341,13.29,0.027,129.0
2023-05-21T05:55:03,42.805,6.029,0.02,-0.032,-0.039,101.0,102.0,101.0,13.4,1505.2,344.2,-0.8,1.8,2471.333,13.29,0.037,148.0
2023-05-21T05:58:03,42.805,6.029,0.057,-0.001,-0.02,102.0,102.0,101.0,13.3,1505.2,317.6,-0.8,1.8,2471.348,13.29,0.057,91.0
2023-05-21T06:04:03,42.805,6.029,0.036,-0.02,-0.013,101.0,103.0,101.0,13.3,1505.2,334.9,-0.8,1.8,2471.411,13.28,0.041,119.1
2023-05-21T06:07:03,42.805,6.029,0.025,-0.022,-0.03,101.0,102.0,102.0,13.4,1505.2,328.3,-0.8,1.8,2471.366,13.28,0.033,131.3
2023-05-21T06:10:03,42.805,6.029,0.042,-0.014,-0.02,102.0,101.0,101.0,13.4,1505.2,342.7,-0.8,1.8,2471.357,13.28,0.044,108.4
2023-05-21T06:13:03,42.805,6.029,0.044,-0.008,-0.001,103.0,101.0,100.0,13.4,1505.2,325.0,-0.7,1.8,2471.364,13.28,0.044,100.3
2023-05-21T06:16:03,42.805,6.029,0.032,-0.014,-0.049,102.0,102.0,101.0,13.4,1505.2,335.8,-0.8,1.8,2471.38,13.28,0.034,113.6
2023-05-21T06:19:03,42.805,6.029,0.036,-0.02,-0.015,102.0,101.0,101.0,13.4,1505.2,338.2,-0.7,1.8,2471.368,13.28,0.041,119.1
2023-05-21T06:22:03,42.805,6.029,0.042,0.003,0.03,101.0,102.0,101.0,13.3,1505.2,330.2,-0.8,1.8,2471.341,13.29,0.042,85.9
2023-05-21T06:25:03,42.805,6.029,0.027,-0.02,-0.057,102.0,102.0,101.0,13.4,1505.2,339.6,-0.7,1.8,2471.364,13.29,0.033,126.5
2023-05-21T06:28:03,42.805,6.029,0.047,-0.005,-0.042,102.0,102.0,101.0,13.4,1505.2,318.9,-0.8,1.8,2471.35,13.29,0.047,96.1
2023-05-21T06:31:03,42.805,6.029,0.032,-0.016,-0.051,102.0,102.0,101.0,13.3,1505.2,333.9,-0.8,1.8,2471.314,13.29,0.035,116.6
2023-05-21T06:34:03,42.805,6.029,0.032,-0.04,-0.042,102.0,101.0,101.0,13.3,1505.2,341.1,-0.8,1.8,2471.336,13.29,0.051,141.3
2023-05-21T06:37:03,42.805,6.029,0.055,-0.008,-0.005,102.0,103.0,101.0,13.4,1505.2,326.0,-0.7,1.8,2471.346,13.29,0.055,98.3
2023-05-21T06:40:03,42.805,6.029,0.049,-0.042,-0.043,102.0,101.0,102.0,13.4,1505.2,336.3,-0.8,1.8,2471.344,13.29,0.064,130.6
2023-05-21T06:43:03,42.805,6.029,0.038,-0.009,-0.009,102.0,102.0,101.0,13.4,1505.2,335.6,-0.8,1.8,2471.341,13.29,0.039,103.3
2023-05-21T06:46:03,42.805,6.029,0.065,-0.003,-0.02,102.0,103.0,100.0,13.3,1505.2,317.5,-0.8,1.8,2471.36,13.29,0.065,92.6
2023-05-21T06:49:03,42.805,6.029,0.03,-0.012,-0.032,102.0,102.0,100.0,13.3,1505.2,333.9,-0.8,1.8,2471.339,13.29,0.032,111.8
2023-05-21T06:52:03,42.805,6.029,0.019,-0.019,-0.039,102.0,101.0,101.0,13.4,1505.2,325.7,-0.8,1.8,2471.333,13.29,0.026,135.0
2023-05-21T06:55:03,42.805,6.029,0.035,-0.002,-0.019,102.0,103.0,101.0,13.4,1505.2,322.3,-0.8,1.8,2471.355,13.29,0.035,93.3
2023-05-21T06:58:03,42.805,6.029,0.024,-0.009,-0.03,101.0,103.0,101.0,13.4,1505.2,323.5,-0.8,1.8,2471.354,13.29,0.025,110.6
2023-05-21T07:04:03,42.805,6.029,0.053,-0.025,-0.006,102.0,102.0,101.0,13.3,1505.2,328.3,-0.8,1.8,2471.441,13.28,0.058,115.3
2023-05-21T07:07:03,42.805,6.029,0.059,-0.007,-0.003,102.0,103.0,101.0,13.4,1505.2,329.8,-0.8,1.8,2471.385,13.28,0.059,96.8
2023-05-21T07:10:03,42.805,6.029,0.044,-0.008,0.007,102.0,101.0,101.0,13.3,1505.2,342.7,-0.8,1.8,2471.365,13.28,0.044,100.3
2023-05-21T07:13:03,42.805,6.029,0.049,-0.018,-0.012,102.0,102.0,101.0,13.4,1505.2,340.2,-0.8,1.8,2471.399,13.28,0.052,110.2
2023-05-21T07:16:03,42.805,6.029,0.048,-0.001,-0.004,102.0,102.0,101.0,13.4,1505.2,318.9,-0.8,1.8,2471.396,13.29,0.048,91.2
2023-05-21T07:19:03,42.805,6.029,0.031,-0.003,-0.005,102.0,101.0,101.0,13.4,1505.2,328.2,-0.8,1.8,2471.37,13.29,0.031,95.5
2023-05-21T07:22:03,42.805,6.029,0.042,-0.013,-0.001,102.0,102.0,100.0,13.4,1505.2,341.5,-0.7,1.8,2471.378,13.29,0.043,107.2
2023-05-21T07:25:03,42.805,6.029,0.024,0.014,-0.001,104.0,101.0,101.0,13.3,1505.2,319.1,-0.8,1.8,2471.367,13.29,0.027,59.7
2023-05-21T07:28:03,42.805,6.029,0.036,-0.019,-0.061,101.0,101.0,101.0,13.4,1505.2,332.9,-0.8,1.8,2471.379,13.28,0.04,117.8
2023-05-21T07:31:03,42.805,6.029,0.046,-0.015,-0.016,102.0,102.0,101.0,13.3,1505.2,329.5,-0.8,1.8,2471.343,13.29,0.048,108.1
2023-05-21T07:34:03,42.805,6.029,0.039,-0.029,-0.034,102.0,102.0,101.0,13.3,1505.2,328.8,-0.8,1.8,2471.349,13.29,0.048,126.6
2023-05-21T07:37:03,42.805,6.029,0.042,-0.026,-0.036,102.0,102.0,101.0,13.4,1505.2,347.0,-0.8,1.8,2471.366,13.29,0.049,121.8
2023-05-21T07:40:03,42.805,6.029,0.045,-0.013,-0.034,102.0,102.0,101.0,13.4,1505.2,325.0,-0.8,1.8,2471.384,13.29,0.046,106.1
2023-05-21T07:43:03,42.805,6.029,0.036,0.003,-0.001,101.0,102.0,101.0,13.3,1505.2,322.1,-0.7,1.8,2471.346,13.29,0.036,85.2
2023-05-21T07:46:03,42.805,6.029,0.044,-0.02,-0.031,100.0,101.0,102.0,13.4,1505.2,328.7,-0.8,1.8,2471.356,13.29,0.048,114.4
2023-05-21T07:49:03,42.805,6.029,0.055,-0.041,-0.021,103.0,100.0,102.0,13.3,1505.2,344.5,-0.7,1.8,2471.395,13.29,0.068,126.7
2023-05-21T07:52:03,42.805,6.029,0.03,-0.005,-0.038,101.0,102.0,101.0,13.4,1505.2,322.4,-0.8,1.8,2471.34,13.29,0.03,99.5
2023-05-21T07:55:03,42.805,6.029,0.027,-0.007,-0.012,102.0,101.0,101.0,13.4,1505.2,333.9,-0.8,1.8,2471.377,13.29,0.027,104.5
2023-05-21T07:58:03,42.805,6.029,0.023,-0.015,-0.025,102.0,102.0,101.0,13.3,1505.2,323.1,-0.8,1.8,2471.326,13.29,0.027,123.1
2023-05-21T08:04:03,42.805,6.029,0.047,-0.03,-0.001,103.0,102.0,101.0,13.3,1505.2,335.5,-0.8,1.8,2471.38,13.28,0.055,122.6
2023-05-21T08:07:03,42.805,6.029,0.034,-0.006,-0.007,102.0,102.0,101.0,13.3,1505.2,321.9,-0.8,1.8,2471.43,13.28,0.034,100.0
2023-05-21T08:10:03,42.805,6.029,0.03,-0.007,-0.023,102.0,101.0,101.0,13.4,1505.2,327.1,-0.7,1.8,2471.376,13.28,0.03,103.1
2023-05-21T08:13:03,42.805,6.029,0.054,-0.008,-0.01,102.0,101.0,101.0,13.4,1505.2,330.5,-0.8,1.8,2471.403,13.28,0.054,98.4
2023-05-21T08:16:03,42.805,6.029,0.043,-0.021,-0.013,102.0,102.0,100.0,13.4,1505.2,331.9,-0.8,1.8,2471.366,13.28,0.047,116.0
2023-05-21T08:19:03,42.805,6.029,0.025,-0.022,-0.023,103.0,102.0,101.0,13.4,1505.2,337.7,-0.8,1.8,2471.352,13.29,0.033,131.3
2023-05-21T08:22:03,42.805,6.029,0.026,-0.042,-0.015,102.0,102.0,101.0,13.3,1505.2,347.5,-0.8,1.8,2471.338,13.29,0.049,148.2
2023-05-21T08:25:03,42.805,6.029,0.038,-0.01,-0.019,102.0,102.0,101.0,13.4,1505.2,321.8,-0.8,1.8,2471.372,13.29,0.039,104.7
2023-05-21T08:28:03,42.805,6.029,0.036,-0.017,-0.033,101.0,102.0,101.0,13.4,1505.2,334.9,-0.7,1.8,2471.357,13.29,0.039,115.3
2023-05-21T08:31:03,42.805,6.029,0.053,0.006,-0.036,101.0,102.0,101.0,13.4,1505.2,329.8,-0.8,1.8,2471.327,13.29,0.053,83.5
2023-05-21T08:34:03,42.805,6.029,0.002,0.001,-0.016,102.0,102.0,101.0,13.3,1505.2,337.4,-0.8,1.8,2471.336,13.29,0.002,63.4
2023-05-21T08:37:03,42.805,6.029,0.05,-0.015,-0.009,101.0,102.0,101.0,13.4,1505.2,326.6,-0.8,1.8,2471.349,13.29,0.052,106.7
2023-05-21T08:40:03,42.805,6.029,0.032,-0.022,-0.04,102.0,102.0,101.0,13.4,1505.2,333.9,-0.8,1.8,2471.352,13.29,0.038,124.5
2023-05-21T08:43:03,42.805,6.029,0.015,-0.014,-0.059,102.0,101.0,101.0,13.4,1505.2,344.8,-0.8,1.8,2471.348,13.29,0.02,133.0
2023-05-21T08:46:03,42.805,6.029,0.039,-0.006,-0.011,102.0,101.0,101.0,13.4,1505.2,318.7,-0.7,1.8,2471.295,13.29,0.039,98.7
2023-05-21T08:49:03,42.805,6.029,0.052,-0.007,-0.004,103.0,102.0,102.0,13.4,1505.2,323.1,-0.8,1.8,2471.346,13.29,0.052,97.7
2023-05-21T08:52:03,42.805,6.029,0.034,-0.021,-0.031,102.0,102.0,101.0,13.4,1505.2,327.8,-0.8,1.8,2471.363,13.29,0.039,121.7
2023-05-21T08:55:03,42.805,6.029,0.037,-0.013,-0.031,103.0,101.0,102.0,13.4,1505.2,328.3,-0.8,1.8,2471.375,13.29,0.039,109.4
2023-05-21T08:58:03,42.805,6.029,0.021,-0.028,-0.029,102.0,101.0,101.0,13.4,1505.2,336.9,-0.8,1.8,2471.311,13.29,0.035,143.1
2023-05-21T09:04:03,42.805,6.029,0.016,-0.003,-0.029,102.0,102.0,101.0,13.4,1505.2,339.0,-0.7,1.8,2471.382,13.28,0.016,100.6
2023-05-21T09:07:03,42.805,6.029,0.052,-0.023,-0.025,103.0,101.0,101.0,13.4,1505.2,327.8,-0.8,1.8,2471.387,13.28,0.056,113.9
2023-05-21T09:10:03,42.805,6.029,0.021,-0.016,-0.05,103.0,103.0,101.0,13.3,1505.2,333.8,-0.8,1.8,2471.379,13.28,0.026,127.3
2023-05-21T09:13:03,42.805,6.029,0.049,-0.028,-0.03,102.0,102.0,101.0,13.4,1505.2,332.9,-0.8,1.8,2471.393,13.28,0.056,119.7
2023-05-21T09:16:03,42.805,6.029,0.068,-0.034,-0.036,103.0,102.0,101.0,13.4,1505.2,328.7,-0.8,1.8,2471.354,13.29,0.076,116.6
2023-05-21T09:19:03,42.805,6.029,0.028,-0.017,-0.013,103.0,102.0,101.0,13.3,1505.2,336.1,-0.8,1.8,2471.352,13.29,0.032,121.3
2023-05-21T09:22:03,42.805,6.029,0.043,-0.014,-0.016,103.0,102.0,101.0,13.3,1505.2,333.8,-0.7,1.8,2471.323,13.29,0.045,108.0
2023-05-21T09:25:03,42.805,6.029,0.026,-0.01,-0.044,103.0,102.0,102.0,13.3,1505.2,319.2,-0.8,1.8,2471.36,13.29,0.027,111.0
2023-05-21T09:28:03,42.805,6.029,0.022,-0.02,-0.025,102.0,102.0,101.0,13.4,1505.2,334.9,-0.8,1.8,2471.308,13.29,0.029,132.3
2023-05-21T09:31:03,42.805,6.029,0.021,0.0,-0.02,102.0,103.0,102.0,13.3,1505.2,331.3,-0.8,1.8,2471.328,13.29,0.021,90.0
2023-05-21T09:34:03,42.805,6.029,0.019,-0.015,-0.022,102.0,102.0,102.0,13.4,1505.2,335.6,-0.8,1.8,2471.326,13.29,0.024,128.3
2023-05-21T09:37:03,42.805,6.029,0.038,-0.021,-0.05,102.0,102.0,102.0,13.3,1505.2,320.6,-0.7,1.8,2471.3,13.29,0.043,118.9
2023-05-21T09:40:03,42.805,6.029,0.03,-0.007,0.01,102.0,102.0,101.0,13.3,1505.2,330.8,-0.8,1.8,2471.328,13.29,0.03,103.1
2023-05-21T09:43:03,42.805,6.029,0.05,-0.021,0.003,103.0,102.0,101.0,13.4,1505.2,341.9,-0.8,1.8,2471.34,13.29,0.054,112.8
2023-05-21T09:46:03,42.805,6.029,0.017,-0.005,-0.024,103.0,102.0,101.0,13.4,1505.2,324.8,-0.8,1.8,2471.32,13.29,0.017,106.4
2023-05-21T09:49:03,42.805,6.029,0.031,-0.03,-0.027,102.0,101.0,101.0,13.4,1505.2,333.0,-0.8,1.8,2471.313,13.29,0.043,134.1
2023-05-21T09:52:03,42.805,6.029,0.038,-0.04,-0.051,102.0,103.0,101.0,13.3,1505.2,334.4,-0.8,1.8,2471.284,13.29,0.055,136.5
2023-05-21T09:55:03,42.805,6.029,0.052,-0.006,0.002,102.0,102.0,101.0,13.4,1505.2,329.3,-0.8,1.8,2471.326,13.29,0.052,96.6